Powrót do katalogu

QIANFAN-214

AktywnyŁącznośćPO
NORAD 69813·PAYLOAD·🇨🇳 China

Wystrzelony Jul 4, 2026 z Taiyuan Satellite Launch Center

Loading…

Następne Przeloty (najbliższe 24 godziny)

TLE

ŚwieżeSource: Space-Track

Epoka: Sep 14, 2026, 22:24 UTC

1 69813U 26153P   26257.93383034 -.01877601  00000-0 -12111+1 0  9997
2 69813  88.9974 352.0159 0008066 356.1120   3.9999 14.06775884 10300

Śledź QIANFAN-214 w czasie rzeczywistym z AllMySat

Download on the App Store